Portada
METAR-TAF:

METAR-TAF

Aeropuertos :

Aeropuerto Yariguíes

Barrancabermeja, Colombia

latitud: 07-01N, longitud: 073-48W, altitud: 126 m

Observación

El informe se hizo hace 40 minutos, a las 21:00 UTC
Viento 3 kt del este-noreste
Temperatura 32°C
Humedad 71%
Presión 1005 hPa
Visibilidad 10 km o más
Nubes dispersas a una altura de 2000 ft

METAR: SKEJ 172100Z 07003KT 9999 SCT020 32/26 A2967

Hora: 16:40 (21:40 UTC)


TAF: falta

Observaciones y pronósticos meteorológicos de más de 4000 aeropuertos (mensajes METAR y TAF).

Los puntos amarillos y rojos representan las estaciones disponibles.

Ponga el ratón en el punto deseado para ver el nombre de la estación.

Haga clic para ver las observaciones y los pronósticos meteorológicos.

Para cambiar el mapa : haga clic en los botones verdes con una cruz de color negro para hacer un zoom, en el botón verde con un guión para alejar o en las flechas verdes para mapas adyacentes.


METAR-TAF: